EW4725 Weather Reports


Display with metric or nautical units.
time (UTC)temp
F
wind
direction
speed
MPH
gust
MPH
rain 1hr
in
rain 24hr
in
rain mn
in
humidity
%
barometer
mb
20260904222416 79 215 2.0 4.0 0.00 0.00 0.00 55 1012.2
20260904221916 80 283 5.0 8.0 0.00 0.00 0.00 55 1012.2
20260904221436 80 215 5.0 7.0 0.00 0.00 0.00 55 1012.2
20260904220916 80 193 3.0 7.0 0.00 0.00 0.00 57 1012.2
20260904220416 80 238 3.0 5.0 0.00 0.00 0.00 58 1012.3
20260904215936 80 170 4.0 5.0 0.00 0.00 0.00 58 1012.2
20260904215416 80 148 2.0 3.0 0.00 0.00 0.00 57 1012.2
20260904214916 80 125 4.0 8.0 0.00 0.00 0.00 57 1012.3
20260904214416 79 148 3.0 4.0 0.00 0.00 0.00 59 1012.3
20260904213916 79 238 4.0 6.0 0.00 0.00 0.00 59 1012.4
20260904213416 80 125 4.0 7.0 0.00 0.00 0.00 59 1012.4
20260904212916 80 170 3.0 5.0 0.00 0.00 0.00 58 1012.4
20260904212416 80 170 4.0 6.0 0.00 0.00 0.00 58 1012.4
20260904211957 80 170 5.0 8.0 0.00 0.00 0.00 59 1012.4
20260904211416 80 238 5.0 9.0 0.00 0.00 0.00 59 1012.4
20260904210916 79 283 3.0 5.0 0.00 0.00 0.00 59 1012.3
20260904210416 79 260 4.0 6.0 0.00 0.00 0.00 59 1012.4
20260904205916 80 215 5.0 8.0 0.00 0.00 0.00 58 1012.5
20260904205416 80 260 3.0 4.0 0.00 0.00 0.00 60 1012.4
20260904204916 79 170 2.0 4.0 0.00 0.00 0.00 60 1012.5
20260904204416 80 238 5.0 10.0 0.00 0.00 0.00 59 1012.6
20260904203916 80 238 4.0 8.0 0.00 0.00 0.00 59 1012.6
20260904203416 80 148 4.0 7.0 0.00 0.00 0.00 59 1012.6
20260904202916 79 238 5.0 9.0 0.00 0.00 0.00 58 1012.6
20260904202416 79 148 3.0 5.0 0.00 0.00 0.00 59 1012.6
20260904201916 79 125 6.0 7.0 0.00 0.00 0.00 58 1012.8
20260904201416 79 58 1.0 3.0 0.00 0.00 0.00 60 1012.9
20260904200916 77 103 2.0 3.0 0.00 0.00 0.00 61 1012.8
20260904200436 78 125 4.0 6.0 0.00 0.00 0.00 61 1012.9
20260904195916 78 148 4.0 6.0 0.00 0.00 0.00 61 1013.0
20260904195416 78 148 8.0 11.0 0.00 0.00 0.00 61 1013.0
20260904194916 78 125 3.0 6.0 0.00 0.00 0.00 60 1013.0
20260904194416 77 125 3.0 5.0 0.00 0.00 0.00 62 1013.0
20260904193916 77 125 4.0 6.0 0.00 0.00 0.00 60 1013.0
20260904193416 78 148 3.0 5.0 0.00 0.00 0.00 60 1013.2
20260904192916 77 0.0 0.0 0.00 0.00 0.00 62 1013.2
20260904192416 78 125 2.0 3.0 0.00 0.00 0.00 61 1013.2
20260904191916 78 103 2.0 6.0 0.00 0.00 0.00 61 1013.4
20260904191416 77 148 4.0 6.0 0.00 0.00 0.00 64 1013.5
20260904190916 77 148 4.0 5.0 0.00 0.00 0.00 64 1013.6
20260904190416 77 148 2.0 3.0 0.00 0.00 0.00 65 1013.6
20260904185916 77 170 4.0 7.0 0.00 0.00 0.00 66 1013.7
20260904185416 76 238 2.0 3.0 0.00 0.00 0.00 65 1013.8
20260904184916 76 148 6.0 12.0 0.00 0.00 0.00 65 1013.8
20260904184416 77 170 2.0 3.0 0.00 0.00 0.00 64 1013.8
20260904183916 77 125 5.0 10.0 0.00 0.00 0.00 64 1013.8
20260904183416 76 148 4.0 6.0 0.00 0.00 0.00 65 1013.9
20260904182916 77 148 5.0 8.0 0.00 0.00 0.00 64 1013.8
20260904182416 77 148 8.0 14.0 0.00 0.00 0.00 62 1013.9
20260904181956 77 148 2.0 6.0 0.00 0.00 0.00 63 1013.8
20260904181416 77 238 3.0 5.0 0.00 0.00 0.00 64 1013.7
20260904180916 76 215 1.0 2.0 0.00 0.00 0.00 66 1013.8
20260904180416 75 125 4.0 6.0 0.00 0.00 0.00 64 1013.8
20260904175916 75 103 2.0 5.0 0.00 0.00 0.00 64 1013.9
20260904175416 76 125 4.0 6.0 0.00 0.00 0.00 65 1013.9
20260904174916 76 125 4.0 5.0 0.00 0.00 0.00 65 1013.9
20260904174416 76 148 4.0 6.0 0.00 0.00 0.00 65 1013.9
20260904173916 76 215 3.0 6.0 0.00 0.00 0.00 65 1013.9
20260904173416 75 238 4.0 7.0 0.00 0.00 0.00 66 1013.8
20260904172916 75 0.0 1.0 0.00 0.00 0.00 67 1013.8
20260904172416 75 103 2.0 4.0 0.00 0.00 0.00 66 1013.8
20260904171916 75 170 3.0 6.0 0.00 0.00 0.00 67 1013.8
20260904171436 75 148 5.0 8.0 0.00 0.00 0.00 68 1013.8
20260904170936 74 148 1.0 3.0 0.00 0.00 0.00 69 1013.7
20260904170416 74 170 1.0 3.0 0.00 0.00 0.00 68 1013.7
20260904165936 75 148 4.0 8.0 0.00 0.00 0.00 68 1013.7
20260904165416 74 170 2.0 3.0 0.00 0.00 0.00 69 1013.6
20260904164916 73 148 4.0 7.0 0.00 0.00 0.00 71 1013.6
20260904164416 73 125 5.0 7.0 0.00 0.00 0.00 71 1013.5
20260904163916 73 260 2.0 3.0 0.00 0.00 0.00 71 1013.5
20260904163416 73 148 2.0 4.0 0.00 0.00 0.00 71 1013.4
20260904162916 73 0.0 1.0 0.00 0.00 0.00 72 1013.3
20260904162416 73 125 3.0 6.0 0.00 0.00 0.00 71 1013.4
20260904161915 73 125 3.0 4.0 0.00 0.00 0.00 73 1013.3
20260904161416 72 80 2.0 3.0 0.00 0.00 0.00 73 1013.3
20260904160916 72 0.0 1.0 0.00 0.00 0.00 73 1013.3
20260904160416 72 125 4.0 5.0 0.00 0.00 0.00 74 1013.3
20260904155916 72 0.0 1.0 0.00 0.00 0.00 76 1013.1
20260904155415 72 125 1.0 2.0 0.00 0.00 0.00 77 1013.2
20260904154916 71 103 1.0 1.0 0.00 0.00 0.00 77 1013.2
20260904154456 71 0.0 1.0 0.00 0.00 0.00 78 1013.1
20260904153936 71 125 2.0 4.0 0.00 0.00 0.00 78 1013.0
20260904153435 70 58 2.0 3.0 0.00 0.00 0.00 80 1013.1
20260904152936 70 58 3.0 4.0 0.00 0.00 0.00 80 1013.1
20260904152416 69 148 2.0 4.0 0.00 0.00 0.00 81 1013.2
20260904151916 69 103 3.0 4.0 0.00 0.00 0.00 82 1013.2
20260904151420 68 125 4.0 6.0 0.00 0.00 0.00 82 1013.2
20260904150915 68 148 2.0 8.0 0.00 0.00 0.00 82 1013.2
20260904150415 68 125 3.0 5.0 0.00 0.00 0.00 83 1013.1
20260904145916 68 103 3.0 5.0 0.00 0.00 0.00 83 1013.1
20260904145415 68 125 3.0 3.0 0.00 0.00 0.00 84 1013.0
20260904144915 67 103 3.0 4.0 0.00 0.00 0.00 85 1013.0
20260904144416 67 148 3.0 5.0 0.00 0.00 0.00 86 1013.0
20260904143915 66 125 3.0 5.0 0.00 0.00 0.00 86 1012.9
20260904143455 66 80 3.0 4.0 0.00 0.00 0.00 87 1012.9
20260904142915 66 80 2.0 5.0 0.00 0.00 0.00 88 1012.9
20260904142415 65 80 1.0 5.0 0.00 0.00 0.00 88 1012.8
20260904141915 65 58 2.0 3.0 0.00 0.00 0.00 89 1012.7
20260904141416 65 58 2.0 3.0 0.00 0.00 0.00 89 1012.7
20260904140916 64 0.0 1.0 0.00 0.00 0.00 89 1012.6
20260904140435 64 0.0 1.0 0.00 0.00 0.00 89 1012.6
20260904135915 64 125 1.0 2.0 0.00 0.00 0.00 89 1012.5
20260904135416 64 0.0 1.0 0.00 0.00 0.00 89 1012.4
20260904134915 64 0.0 0.0 0.00 0.00 0.00 89 1012.4
20260904134436 64 0.0 1.0 0.00 0.00 0.00 89 1012.4
20260904133915 64 125 1.0 3.0 0.00 0.00 0.00 89 1012.4
20260904133415 64 125 1.0 2.0 0.00 0.00 0.00 89 1012.4
20260904132936 64 0.0 0.0 0.00 0.00 0.00 89 1012.4
20260904132415 64 125 2.0 3.0 0.00 0.00 0.00 90 1012.4
20260904131935 64 0.0 1.0 0.00 0.00 0.00 90 1012.4
20260904131416 64 0.0 1.0 0.00 0.00 0.00 90 1012.5
20260904130915 64 103 1.0 1.0 0.00 0.00 0.00 89 1012.4
20260904130415 64 80 1.0 1.0 0.00 0.00 0.00 90 1012.4
20260904125915 64 80 1.0 2.0 0.00 0.00 0.00 90 1012.3
20260904125415 64 80 1.0 2.0 0.00 0.00 0.00 90 1012.3
20260904124915 64 80 1.0 2.0 0.00 0.00 0.00 90 1012.2
20260904124415 64 0.0 2.0 0.00 0.00 0.00 90 1012.2
20260904123915 64 125 1.0 2.0 0.00 0.00 0.00 90 1012.2
20260904123416 64 0.0 0.0 0.00 0.00 0.00 90 1012.0
20260904122915 64 0.0 1.0 0.00 0.00 0.00 90 1012.1
20260904122415 64 0.0 1.0 0.00 0.00 0.00 90 1012.0
20260904121915 64 0.0 1.0 0.00 0.00 0.00 90 1012.0
20260904121415 64 125 2.0 4.0 0.00 0.00 0.00 90 1012.0
20260904120915 64 0.0 0.0 0.00 0.00 0.00 90 1012.0
20260904120416 64 0.0 1.0 0.00 0.00 0.00 90 1011.9
20260904115915 64 0.0 0.0 0.00 0.00 0.00 90 1012.0
20260904115415 65 0.0 0.0 0.00 0.00 0.00 90 1012.1
20260904114935 65 125 1.0 2.0 0.00 0.00 0.00 90 1012.1
20260904114415 65 125 2.0 2.0 0.00 0.00 0.00 90 1012.0
20260904113915 65 0.0 1.0 0.00 0.00 0.00 90 1012.0
20260904113435 65 0.0 1.0 0.00 0.00 0.00 90 1012.0
20260904113015 65 0.0 0.0 0.00 0.00 0.00 90 1012.0
20260904112455 65 125 1.0 1.0 0.00 0.00 0.00 90 1012.0
20260904111915 65 0.0 1.0 0.00 0.00 0.00 90 1012.0
20260904111417 65 0.0 0.0 0.00 0.00 0.00 90 1012.0
20260904110938 65 0.0 0.0 0.00 0.00 0.00 90 1012.0
20260904110417 65 0.0 0.0 0.00 0.00 0.00 90 1012.0
20260904105915 65 0.0 0.0 0.00 0.00 0.00 90 1012.0
20260904105417 65 0.0 0.0 0.00 0.00 0.00 90 1012.0
20260904104917 65 0.0 0.0 0.00 0.00 0.00 90 1012.0
20260904104437 65 0.0 0.0 0.00 0.00 0.00 90 1012.0
20260904103935 65 0.0 0.0 0.00 0.00 0.00 90 1012.0
20260904103417 65 0.0 0.0 0.00 0.00 0.00 90 1012.0
20260904102917 65 0.0 0.0 0.00 0.00 0.00 90 1012.0
20260904102417 65 0.0 1.0 0.00 0.00 0.00 90 1011.9
20260904101917 65 0.0 0.0 0.00 0.00 0.00 90 1011.9
20260904101417 65 0.0 0.0 0.00 0.00 0.00 90 1011.9
20260904100937 65 0.0 0.0 0.00 0.00 0.00 90 1011.9
20260904100417 65 0.0 0.0 0.00 0.00 0.00 90 1011.9
20260904095917 65 0.0 0.0 0.00 0.00 0.00 91 1011.9
20260904095457 65 0.0 0.0 0.00 0.00 0.00 91 1011.9
20260904094917 65 0.0 0.0 0.00 0.00 0.00 90 1012.0
20260904094417 65 0.0 0.0 0.00 0.00 0.00 91 1011.9
20260904093917 65 0.0 0.0 0.00 0.00 0.00 91 1012.0
20260904093417 64 0.0 0.0 0.00 0.00 0.00 91 1012.0
20260904092917 65 0.0 0.0 0.00 0.00 0.00 91 1012.0
20260904092417 65 0.0 0.0 0.00 0.00 0.00 91 1011.9
20260904091917 65 0.0 0.0 0.00 0.00 0.00 92 1012.0
20260904091417 64 0.0 0.0 0.00 0.00 0.00 92 1012.0
20260904090917 64 0.0 0.0 0.00 0.00 0.00 92 1012.0
20260904090417 64 0.0 0.0 0.00 0.00 0.00 92 1011.9
20260904085917 64 0.0 0.0 0.00 0.00 0.00 92 1011.9
20260904085417 64 0.0 0.0 0.00 0.00 0.00 92 1012.0
20260904084917 63 0.0 0.0 0.00 0.00 0.00 91 1012.0
20260904084417 64 0.0 0.0 0.00 0.00 0.00 92 1012.1
20260904083917 64 0.0 0.0 0.00 0.00 0.00 91 1012.1
20260904083417 64 0.0 0.0 0.00 0.00 0.00 91 1012.1
20260904082917 64 0.0 0.0 0.00 0.00 0.00 91 1012.1
20260904082417 64 0.0 0.0 0.00 0.00 0.00 92 1012.1
20260904081917 64 0.0 0.0 0.00 0.00 0.00 91 1012.2
20260904081417 64 0.0 0.0 0.00 0.00 0.00 91 1012.1
20260904080917 64 0.0 0.0 0.00 0.00 0.00 90 1012.1
20260904080417 64 0.0 0.0 0.00 0.00 0.00 91 1012.1
20260904075917 64 0.0 0.0 0.00 0.00 0.00 91 1012.2
20260904075437 64 0.0 0.0 0.00 0.00 0.00 91 1012.1
20260904074917 64 0.0 0.0 0.00 0.00 0.00 91 1012.2
20260904074417 64 0.0 0.0 0.00 0.00 0.00 91 1012.2
20260904073917 64 0.0 0.0 0.00 0.00 0.00 90 1012.1
20260904073417 64 0.0 0.0 0.00 0.00 0.00 90 1012.1
20260904072937 64 0.0 0.0 0.00 0.00 0.00 90 1012.1
20260904072417 65 0.0 0.0 0.00 0.00 0.00 90 1012.2
20260904071937 65 0.0 0.0 0.00 0.00 0.00 90 1012.2
20260904071417 65 0.0 0.0 0.00 0.00 0.00 90 1012.1
20260904070917 65 0.0 0.0 0.00 0.00 0.00 90 1012.1
20260904070417 65 0.0 0.0 0.00 0.00 0.00 90 1012.2
20260904065915 65 0.0 0.0 0.00 0.00 0.00 90 1012.1
20260904065435 65 0.0 0.0 0.00 0.00 0.00 89 1012.1
20260904064935 65 0.0 0.0 0.00 0.00 0.00 88 1012.0
20260904064415 65 0.0 0.0 0.00 0.00 0.00 88 1012.0
20260904063935 65 0.0 0.0 0.00 0.00 0.00 88 1012.1
20260904063415 66 0.0 0.0 0.00 0.00 0.00 88 1012.1
20260904062935 66 0.0 0.0 0.00 0.00 0.00 88 1012.1
20260904062415 66 0.0 0.0 0.00 0.00 0.00 88 1012.1
20260904061919 66 0.0 0.0 0.00 0.00 0.00 87 1012.0
20260904061415 66 0.0 0.0 0.00 0.00 0.00 87 1012.0
20260904060917 67 0.0 0.0 0.00 0.00 0.00 87 1012.0
20260904060417 67 0.0 0.0 0.00 0.00 0.00 86 1011.9
20260904055937 67 0.0 0.0 0.00 0.00 0.00 86 1011.9
20260904055415 67 0.0 0.0 0.00 0.00 0.00 86 1011.9
20260904054917 67 0.0 0.0 0.00 0.00 0.00 86 1011.9
20260904054417 67 0.0 0.0 0.00 0.00 0.00 86 1011.9
20260904053917 68 305 1.0 2.0 0.00 0.00 0.00 86 1011.9
20260904053415 68 0.0 1.0 0.00 0.00 0.00 86 1012.0
20260904052917 68 0.0 0.0 0.00 0.00 0.00 86 1011.9
20260904052417 68 0.0 1.0 0.00 0.00 0.00 86 1012.0
20260904051917 68 0.0 0.0 0.00 0.00 0.00 85 1012.1
20260904051417 68 0.0 0.0 0.00 0.00 0.00 85 1012.1
20260904050917 68 0.0 0.0 0.00 0.00 0.00 85 1012.1
20260904050417 68 0.0 1.0 0.00 0.00 0.00 85 1012.1
20260904045917 68 283 2.0 4.0 0.00 0.00 0.00 85 1012.1
20260904045417 68 260 1.0 2.0 0.00 0.00 0.00 84 1012.0
20260904044937 68 283 2.0 4.0 0.00 0.00 0.00 84 1012.0
20260904044437 68 283 3.0 4.0 0.00 0.00 0.00 84 1012.0
20260904043937 68 305 2.0 4.0 0.00 0.00 0.00 83 1012.0
20260904043417 68 260 1.0 2.0 0.00 0.00 0.00 83 1011.9
20260904042917 68 260 2.0 4.0 0.00 0.00 0.00 83 1011.9
20260904042417 68 260 3.0 6.0 0.00 0.00 0.00 83 1011.9
20260904041917 68 283 2.0 3.0 0.00 0.00 0.00 83 1011.9
20260904041417 68 283 2.0 2.0 0.00 0.00 0.00 83 1011.8
20260904040917 69 283 1.0 2.0 0.00 0.00 0.00 83 1011.8
20260904040417 69 260 2.0 3.0 0.00 0.00 0.00 83 1011.7
20260904040037 69 283 3.0 6.0 0.00 0.00 0.00 83 1011.7
20260904035417 69 283 1.0 2.0 0.00 0.00 0.00 82 1011.7
20260904034917 69 283 3.0 6.0 0.00 0.00 0.00 82 1011.7
20260904034437 69 260 3.0 4.0 0.00 0.00 0.00 82 1011.5
20260904033917 69 305 3.0 5.0 0.00 0.00 0.00 82 1011.5
20260904033417 69 283 3.0 6.0 0.00 0.00 0.00 83 1011.5
20260904032917 69 283 2.0 4.0 0.00 0.00 0.00 83 1011.4
20260904032437 69 260 3.0 6.0 0.00 0.00 0.00 83 1011.3
20260904031917 69 283 3.0 5.0 0.00 0.00 0.00 82 1011.3
20260904031417 69 260 4.0 5.0 0.00 0.00 0.00 82 1011.3
20260904030917 69 283 3.0 5.0 0.00 0.00 0.00 81 1011.2
20260904030417 70 260 4.0 6.0 0.00 0.00 0.00 81 1011.2
20260904025917 70 283 3.0 4.0 0.00 0.00 0.00 81 1011.2
20260904025417 70 305 4.0 6.0 0.00 0.00 0.00 80 1011.1
20260904024917 70 283 2.0 3.0 0.00 0.00 0.00 79 1011.0
20260904024417 70 283 5.0 8.0 0.00 0.00 0.00 77 1011.0
20260904023916 70 283 2.0 3.0 0.00 0.00 0.00 76 1011.1
20260904023417 70 305 5.0 8.0 0.00 0.00 0.00 75 1011.1
20260904022917 70 283 4.0 5.0 0.00 0.00 0.00 74 1011.1
20260904022417 71 260 4.0 6.0 0.00 0.00 0.00 73 1011.1
20260904021917 71 283 4.0 5.0 0.00 0.00 0.00 70 1011.1
20260904021417 71 260 6.0 8.0 0.00 0.00 0.00 68 1011.1
20260904020917 72 283 5.0 7.0 0.00 0.00 0.00 69 1011.1
20260904020417 72 260 5.0 7.0 0.00 0.00 0.00 70 1011.1
20260904015917 72 283 3.0 4.0 0.00 0.00 0.00 70 1011.0
20260904015437 72 283 3.0 5.0 0.00 0.00 0.00 70 1011.1
20260904014917 73 260 5.0 7.0 0.00 0.00 0.00 68 1011.1
20260904014417 73 283 4.0 6.0 0.00 0.00 0.00 67 1011.1
20260904013917 73 305 4.0 7.0 0.00 0.00 0.00 65 1011.2
20260904013456 74 283 4.0 6.0 0.00 0.00 0.00 65 1011.2
20260904012917 74 283 4.0 6.0 0.00 0.00 0.00 64 1011.2
20260904012417 74 283 5.0 8.0 0.00 0.00 0.00 63 1011.2
20260904011916 74 283 5.0 9.0 0.00 0.00 0.00 63 1011.1
20260904011417 74 283 3.0 4.0 0.00 0.00 0.00 64 1011.2
20260904010916 74 283 6.0 7.0 0.00 0.00 0.00 64 1011.1
20260904010417 74 305 4.0 7.0 0.00 0.00 0.00 66 1011.1
20260904005917 74 238 6.0 8.0 0.00 0.00 0.00 68 1011.1
20260904005417 75 283 7.0 8.0 0.00 0.00 0.00 68 1011.1
20260904004937 75 260 7.0 9.0 0.00 0.00 0.00 67 1011.1
20260904004416 76 283 7.0 9.0 0.00 0.00 0.00 66 1011.2
20260904003916 76 260 5.0 9.0 0.00 0.00 0.00 67 1011.1
20260904003417 76 283 6.0 9.0 0.00 0.00 0.00 66 1011.1
20260904002917 77 260 8.0 11.0 0.00 0.00 0.00 65 1011.1
20260904002416 77 305 5.0 7.0 0.00 0.00 0.00 65 1011.1
20260904001917 77 283 6.0 8.0 0.00 0.00 0.00 64 1011.1
20260904001416 78 260 6.0 11.0 0.00 0.00 0.00 63 1011.1
20260904000936 78 283 6.0 10.0 0.00 0.00 0.00 62 1011.2
20260904000417 78 305 4.0 6.0 0.00 0.00 0.00 62 1011.2
20260903235917 79 260 6.0 9.0 0.00 0.00 0.00 60 1011.2
20260903235417 79 305 2.0 5.0 0.00 0.00 0.00 60 1011.2
20260903234937 79 283 5.0 9.0 0.00 0.00 0.00 60 1011.3
20260903234416 79 170 2.0 5.0 0.00 0.00 0.00 60 1011.3
20260903233917 79 260 1.0 3.0 0.00 0.00 0.00 60 1011.3
20260903233417 79 238 5.0 7.0 0.00 0.00 0.00 60 1011.3
20260903232956 79 238 2.0 4.0 0.00 0.00 0.00 62 1011.3
20260903232416 79 125 5.0 10.0 0.00 0.00 0.00 61 1011.4
20260903231916 79 148 3.0 6.0 0.00 0.00 0.00 62 1011.5
20260903231416 79 215 2.0 4.0 0.00 0.00 0.00 62 1011.5
20260903230917 79 170 3.0 7.0 0.00 0.00 0.00 61 1011.6
20260903230416 79 260 3.0 6.0 0.00 0.00 0.00 61 1011.6
20260903225916 79 125 4.0 8.0 0.00 0.00 0.00 62 1011.7
20260903225457 79 148 4.0 7.0 0.00 0.00 0.00 62 1011.7
20260903224916 79 125 4.0 7.0 0.00 0.00 0.00 61 1011.7
20260903224416 79 170 3.0 5.0 0.00 0.00 0.00 62 1011.7
20260903223916 79 283 2.0 4.0 0.00 0.00 0.00 61 1011.8
20260903223416 79 125 5.0 8.0 0.00 0.00 0.00 61 1011.8
20260903222916 79 148 2.0 3.0 0.00 0.00 0.00 60 1011.9